Location: Regensburg
(48.4565°N, 10.3217°E)
Time: 03:44:22
(UTC+02:00)

ISS - Pass Details

Date: 07 January 2018
Orbit: 401 x 409 km, 51.6° (Epoch: 20 August)

Event Time Altitude Azimuth Distance (km) Brightness Sun altitude
Exits shadow 07:34:40 - 291° (WNW) 1,714 -1.3 -5.8°
Reaches altitude 10° 07:35:10 10° 291° (WNW) 1,511 -1.6 -5.7°
Maximum altitude 07:38:34 86° 207° (SSW) 430 -3.7 -5.2°
Drops below altitude 10° 07:41:59 10° 114° (ESE) 1,515 1.0 -4.7°
Sets 07:44:05 0° 114° (ESE) 2,380 2.9 -4.4°
